NOAA NWS Hourly Roundups by Site

Regional Weather Roundup for Omaha, NE

To Select Another Site Choose from List

Select Site:  

000
ASUS43 KOAX 072310
RWRNE

WEATHER ROUNDUP FOR NEBRASKA
NATIONAL WEATHER SERVICE OMAHA NE
600 PM CDT TUE APR 07 2020

NOTES: SATELLITE DATA IS BEING USED TO AUGMENT CLOUD COVER ABOVE
       12000 FEET.
       "FAIR" INDICATES FEW OR NO CLOUDS BELOW 12,000 FEET WITH NO
       SIGNIFICANT WEATHER AND/OR OBSTRUCTIONS TO VISIBILITY.


NEZ001>004-019>022-054>056-080000-
NEBRASKA PANHANDLE

CITY           SKY/WX    TMP DP  RH WIND       PRES   REMARKS
SCOTTSBLUFF    FAIR      74  25  16 W24G35    29.82S
ALLIANCE       FAIR      73  21  14 W25G36    29.80S
CHADRON        FAIR      73  24  16 W29G39    29.76S
GORDON         FAIR      71  26  18 W14       29.76S
KIMBALL        FAIR      72  17  12 W26G36    29.88S
SIDNEY         FAIR      74  14  10 W24G32    29.84S
$$

NEZ057>060-069>072-079>082-080000-
SOUTHWEST NEBRASKA

CITY           SKY/WX    TMP DP  RH WIND       PRES   REMARKS
NORTH PLATTE   FAIR      80  29  15 W23G33    29.77F
IMPERIAL       FAIR      78  22  12 W15G25    29.81F
LEXINGTON      FAIR      78  36  21 W20G25    29.78S
MCCOOK         FAIR      81  27  14 SW16G23   29.79F
OGALLALA       FAIR      79  22  12 W21G28    29.79S
$$

NEZ005>010-023>029-035>040-094-080000-
NORTH CENTRAL NEBRASKA

CITY           SKY/WX    TMP DP  RH WIND       PRES   REMARKS
VALENTINE      FAIR      77  29  17 W12G26    29.73S
AINSWORTH      FAIR      76  31  19 NW14G21   29.75S
BROKEN BOW     FAIR      79  29  16 W13       29.76S
O`NEILL        FAIR      76  28  17 N14       29.72R
ORD            FAIR      77  31  18 NW18G29   29.74R
THEDFORD       FAIR      78  30  17 NW14G30   29.77S
$$

NEZ041-046>049-061>064-073>077-083>087-080000-
SOUTH CENTRAL NEBRASKA

CITY           SKY/WX    TMP DP  RH WIND       PRES   REMARKS
GRAND ISLAND   FAIR      82  29  14 NW24G33   29.74R
AURORA         FAIR      82  36  19 NW24G31   29.73R
HASTINGS       FAIR      82  30  15 NW23G31   29.75R
HEBRON         FAIR      85  27  12 W7        29.72S
HOLDREGE       FAIR      81  27  14 W16G24    29.77F
KEARNEY        FAIR      80  30  16 NW16G23   29.76R
YORK             N/A     82  27  13 NW20G29   29.70S
$$

NEZ011>018-030>034-042>045-080000-
NORTHEAST NEBRASKA

CITY           SKY/WX    TMP DP  RH WIND       PRES   REMARKS
NORFOLK        FAIR      79  36  21 NW12      29.69S
ALBION         FAIR      80  31  16 NW21G28   29.72R
BLAIR          FAIR     N/A N/A N/A NW16G22   29.69R
COLUMBUS       FAIR      82  31  15 W14       29.70R
FREMONT        FAIR      82  40  22 NW13      29.69R
TEKAMAH        FAIR      81  38  21 NW17      29.67R
WAYNE          FAIR      78  35  21 NW12G21   29.69S
$$

NEZ050>053-065>068-078-088>093-080000-
SOUTHEAST NEBRASKA

CITY           SKY/WX    TMP DP  RH WIND       PRES   REMARKS
LINCOLN        FAIR      86  30  13 NW12G20   29.68F
OMAHA EPPLEY   FAIR      83  36  18 NW16      29.66R
BEATRICE       FAIR      86  34  15 NW16G23   29.71S
FALLS CITY     FAIR      86  41  20 W8        29.67F
NEBRASKA CITY  FAIR      85  33  15 W17G25    29.69S
PLATTSMOUTH    FAIR      85  28  12 W17G24    29.69R
$$

NEZ044-045-051>053-067-080000-
OMAHA AREA

CITY           SKY/WX    TMP DP  RH WIND       PRES   REMARKS
OMAHA EPPLEY   FAIR      83  36  18 NW16      29.66R
BLAIR          FAIR     N/A N/A N/A NW16G22   29.69R
FREMONT        FAIR      82  40  22 NW13      29.69R
MILLARD        FAIR      83  31  15 NW15      29.68R
OFFUTT AFB     SUNNY     83  37  18 W13G21    29.67R
PLATTSMOUTH    FAIR      85  28  12 W17G24    29.69R
WAHOO          FAIR      84  31  15 NW10      29.68S
$$


 

View Past Reports for Omaha, NE.

Products Courtesy of NOAA-NWS
NWS Information Parsing Script by Ken True at Saratoga Weather - Script by SE Lincoln Weather.